Time,TemperatureF,DewpointF,PressureIn,WindDirection,WindDirectionDegrees,WindSpeedMPH,WindSpeedGustMPH,Humidity,HourlyPrecipIn,Conditions,Clouds,dailyrainin,SoftwareType,DateUTC
2013-01-03 00:02:00,51.0,21.0,29.70,SE,126,0.0,-999.0,30,-99.99,,,-99.99,,2013-01-03 08:02:00,
2013-01-03 00:11:00,51.0,21.0,29.70,SE,126,0.0,-999.0,30,-99.99,,,-99.99,,2013-01-03 08:11:00,
2013-01-03 00:22:00,51.0,19.0,29.69,SE,134,1.0,-999.0,28,-99.99,,,-99.99,,2013-01-03 08:22:00,
2013-01-03 00:32:00,52.0,18.0,29.69,SE,133,0.0,-999.0,26,-99.99,,,-99.99,,2013-01-03 08:32:00,
2013-01-03 00:42:00,52.0,18.0,29.69,SE,133,0.0,-999.0,26,-99.99,,,-99.99,,2013-01-03 08:42:00,
2013-01-03 00:52:00,51.0,19.0,29.69,SE,132,0.0,-999.0,28,-99.99,,,-99.99,,2013-01-03 08:52:00,
2013-01-03 01:02:00,51.0,19.0,29.69,SE,133,0.0,-999.0,28,-99.99,,,-99.99,,2013-01-03 09:02:00,
2013-01-03 01:12:00,51.0,19.0,29.69,SE,133,0.0,-999.0,28,-99.99,,,-99.99,,2013-01-03 09:12:00,
2013-01-03 01:22:00,50.0,19.0,29.69,SE,132,0.0,-999.0,29,-99.99,,,-99.99,,2013-01-03 09:22:00,
2013-01-03 01:33:00,49.0,19.0,29.69,SE,132,0.0,-999.0,30,-99.99,,,-99.99,,2013-01-03 09:33:00,
2013-01-03 01:52:00,47.0,19.0,29.69,SE,132,0.0,-999.0,33,-99.99,,,-99.99,,2013-01-03 09:52:00,
2013-01-03 02:02:00,46.0,20.0,29.69,SE,132,0.0,-999.0,35,-99.99,,,-99.99,,2013-01-03 10:02:00,
2013-01-03 02:12:00,46.0,20.0,29.69,SE,132,0.0,-999.0,35,-99.99,,,-99.99,,2013-01-03 10:12:00,
2013-01-03 02:22:00,45.0,18.0,29.69,SE,132,0.0,-999.0,34,-99.99,,,-99.99,,2013-01-03 10:22:00,
2013-01-03 02:32:00,47.0,19.0,29.70,ESE,123,0.0,-999.0,33,-99.99,,,-99.99,,2013-01-03 10:32:00,
2013-01-03 02:42:00,47.0,19.0,29.70,ESE,123,0.0,-999.0,33,-99.99,,,-99.99,,2013-01-03 10:42:00,
2013-01-03 02:52:00,47.0,20.0,29.70,ESE,119,0.0,-999.0,34,-99.99,,,-99.99,,2013-01-03 10:52:00,
2013-01-03 03:02:00,47.0,20.0,29.70,ESE,103,0.0,-999.0,34,-99.99,,,-99.99,,2013-01-03 11:02:00,
2013-01-03 03:12:00,47.0,20.0,29.70,ESE,103,0.0,-999.0,34,-99.99,,,-99.99,,2013-01-03 11:12:00,
2013-01-03 03:22:00,47.0,19.0,29.70,ESE,106,0.0,-999.0,32,-99.99,,,-99.99,,2013-01-03 11:22:00,
2013-01-03 03:32:00,48.0,21.0,29.70,ESE,111,0.0,-999.0,34,-99.99,,,-99.99,,2013-01-03 11:32:00,
2013-01-03 03:42:00,48.0,21.0,29.70,ESE,111,0.0,-999.0,34,-99.99,,,-99.99,,2013-01-03 11:42:00,
2013-01-03 03:52:00,49.0,23.0,29.70,ESE,107,1.0,-999.0,35,-99.99,,,-99.99,,2013-01-03 11:52:00,
2013-01-03 04:02:00,50.0,23.0,29.70,SE,142,0.0,-999.0,35,-99.99,,,-99.99,,2013-01-03 12:02:00,
2013-01-03 04:22:00,49.0,21.0,29.70,SE,137,0.0,-999.0,33,-99.99,,,-99.99,,2013-01-03 12:22:00,
2013-01-03 04:32:00,48.0,21.0,29.69,SE,141,1.0,-999.0,34,-99.99,,,-99.99,,2013-01-03 12:32:00,
2013-01-03 04:42:00,48.0,21.0,29.69,SE,141,1.0,-999.0,34,-99.99,,,-99.99,,2013-01-03 12:42:00,
2013-01-03 04:52:00,46.0,19.0,29.69,SSE,149,1.0,-999.0,34,-99.99,,,-99.99,,2013-01-03 12:52:00,
2013-01-03 05:02:00,47.0,19.0,29.68,SSE,157,1.0,-999.0,32,-99.99,,,-99.99,,2013-01-03 13:02:00,
2013-01-03 05:12:00,47.0,19.0,29.68,SSE,157,1.0,-999.0,32,-99.99,,,-99.99,,2013-01-03 13:12:00,
2013-01-03 05:22:00,48.0,19.0,29.68,SSE,160,0.0,-999.0,31,-99.99,,,-99.99,,2013-01-03 13:22:00,
2013-01-03 05:32:00,48.0,17.0,29.69,SSE,159,0.0,-999.0,29,-99.99,,,-99.99,,2013-01-03 13:32:00,
2013-01-03 05:42:00,48.0,17.0,29.69,SSE,159,0.0,-999.0,29,-99.99,,,-99.99,,2013-01-03 13:42:00,
2013-01-03 05:52:00,50.0,16.0,29.69,SE,138,0.0,-999.0,26,-99.99,,,-99.99,,2013-01-03 13:52:00,
2013-01-03 06:02:00,51.0,16.0,29.69,SE,138,0.0,-999.0,25,-99.99,,,-99.99,,2013-01-03 14:02:00,
2013-01-03 06:12:00,51.0,16.0,29.69,SE,138,0.0,-999.0,25,-99.99,,,-99.99,,2013-01-03 14:12:00,
2013-01-03 06:22:00,49.0,17.0,29.69,SE,138,0.0,-999.0,28,-99.99,,,-99.99,,2013-01-03 14:22:00,
2013-01-03 06:32:00,48.0,16.0,29.69,SE,138,0.0,-999.0,28,-99.99,,,-99.99,,2013-01-03 14:32:00,
2013-01-03 06:42:00,48.0,16.0,29.69,SE,138,0.0,-999.0,28,-99.99,,,-99.99,,2013-01-03 14:42:00,
2013-01-03 06:53:00,48.0,16.0,29.69,SE,137,0.0,-999.0,27,-99.99,,,-99.99,,2013-01-03 14:53:00,
2013-01-03 07:02:00,49.0,16.0,29.69,SE,138,0.0,-999.0,26,-99.99,,,-99.99,,2013-01-03 15:02:00,
2013-01-03 07:12:00,49.0,16.0,29.69,SE,138,0.0,-999.0,26,-99.99,,,-99.99,,2013-01-03 15:12:00,
2013-01-03 07:22:00,49.0,16.0,29.69,SE,138,0.0,-999.0,26,-99.99,,,-99.99,,2013-01-03 15:22:00,
2013-01-03 07:33:00,50.0,16.0,29.70,SE,137,0.0,-999.0,26,-99.99,,,-99.99,,2013-01-03 15:33:00,
2013-01-03 07:43:00,50.0,16.0,29.70,SE,137,0.0,-999.0,26,-99.99,,,-99.99,,2013-01-03 15:43:00,
2013-01-03 07:53:00,49.0,16.0,29.71,SE,138,1.0,-999.0,26,-99.99,,,-99.99,,2013-01-03 15:53:00,
2013-01-03 08:03:00,50.0,17.0,29.71,SE,138,0.0,-999.0,27,-99.99,,,-99.99,,2013-01-03 16:03:00,
2013-01-03 08:12:00,50.0,17.0,29.71,SE,138,0.0,-999.0,27,-99.99,,,-99.99,,2013-01-03 16:12:00,
2013-01-03 08:22:00,50.0,17.0,29.71,SE,138,0.0,-999.0,27,-99.99,,,-99.99,,2013-01-03 16:22:00,
2013-01-03 08:33:00,51.0,19.0,29.71,SE,138,1.0,-999.0,28,-99.99,,,-99.99,,2013-01-03 16:33:00,
2013-01-03 08:43:00,51.0,19.0,29.71,SE,138,1.0,-999.0,28,-99.99,,,-99.99,,2013-01-03 16:43:00,
2013-01-03 08:53:00,53.0,21.0,29.72,SSE,154,0.0,-999.0,28,-99.99,,,-99.99,,2013-01-03 16:53:00,
2013-01-03 09:02:00,55.0,21.0,29.72,SSE,156,0.0,-999.0,26,-99.99,,,-99.99,,2013-01-03 17:02:00,
2013-01-03 09:52:00,57.0,21.0,29.73,North,11,1.0,-999.0,24,-99.99,,,-99.99,,2013-01-03 17:52:00,
2013-01-03 10:03:00,56.0,21.0,29.73,NE,35,0.0,-999.0,25,-99.99,,,-99.99,,2013-01-03 18:03:00,
2013-01-03 10:12:00,56.0,21.0,29.73,NE,35,0.0,-999.0,25,-99.99,,,-99.99,,2013-01-03 18:12:00,
2013-01-03 10:22:00,55.0,20.0,29.74,North,355,0.0,-999.0,25,-99.99,,,-99.99,,2013-01-03 18:22:00,
2013-01-03 10:33:00,55.0,21.0,29.74,WNW,301,1.0,-999.0,26,-99.99,,,-99.99,,2013-01-03 18:33:00,
2013-01-03 10:42:00,55.0,21.0,29.74,WNW,301,1.0,-999.0,26,-99.99,,,-99.99,,2013-01-03 18:42:00,
2013-01-03 10:53:00,55.0,23.0,29.75,NW,304,0.0,-999.0,28,-99.99,,,-99.99,,2013-01-03 18:53:00,
2013-01-03 11:03:00,55.0,23.0,29.75,North,351,0.0,-999.0,29,-99.99,,,-99.99,,2013-01-03 19:03:00,
2013-01-03 11:12:00,55.0,23.0,29.75,North,351,0.0,-999.0,29,-99.99,,,-99.99,,2013-01-03 19:12:00,
2013-01-03 11:55:00,59.0,26.0,29.73,NNE,16,0.0,-999.0,28,-99.99,,,-99.99,,2013-01-03 19:55:00,
2013-01-03 12:02:00,59.0,27.0,29.73,NE,34,0.0,-999.0,29,-99.99,,,-99.99,,2013-01-03 20:02:00,
2013-01-03 12:12:00,59.0,27.0,29.73,NE,34,0.0,-999.0,29,-99.99,,,-99.99,,2013-01-03 20:12:00,
2013-01-03 12:22:00,59.0,27.0,29.72,NNE,28,1.0,-999.0,29,-99.99,,,-99.99,,2013-01-03 20:22:00,
2013-01-03 12:33:00,59.0,28.0,29.72,NNE,18,0.0,-999.0,30,-99.99,,,-99.99,,2013-01-03 20:33:00,
2013-01-03 12:42:00,59.0,28.0,29.72,NNE,18,0.0,-999.0,30,-99.99,,,-99.99,,2013-01-03 20:42:00,
2013-01-03 12:53:00,59.0,26.0,29.72,North,5,1.0,-999.0,28,-99.99,,,-99.99,,2013-01-03 20:53:00,
2013-01-03 13:02:00,60.0,28.0,29.72,North,355,1.0,-999.0,30,-99.99,,,-99.99,,2013-01-03 21:02:00,
2013-01-03 13:12:00,60.0,28.0,29.72,North,355,1.0,-999.0,30,-99.99,,,-99.99,,2013-01-03 21:12:00,
2013-01-03 13:22:00,60.0,26.0,29.72,North,360,2.0,-999.0,27,-99.99,,,-99.99,,2013-01-03 21:22:00,
2013-01-03 13:34:00,59.0,27.0,29.72,NNE,13,1.0,-999.0,29,-99.99,,,-99.99,,2013-01-03 21:34:00,
2013-01-03 13:46:00,59.0,27.0,29.72,NNE,13,1.0,-999.0,29,-99.99,,,-99.99,,2013-01-03 21:46:00,
2013-01-03 13:52:00,59.0,27.0,29.72,North,11,1.0,-999.0,29,-99.99,,,-99.99,,2013-01-03 21:52:00,
2013-01-03 14:02:00,59.0,25.0,29.72,North,360,1.0,-999.0,27,-99.99,,,-99.99,,2013-01-03 22:02:00,
2013-01-03 14:12:00,59.0,25.0,29.72,North,360,1.0,-999.0,27,-99.99,,,-99.99,,2013-01-03 22:12:00,
2013-01-03 14:22:00,59.0,27.0,29.72,North,360,1.0,-999.0,29,-99.99,,,-99.99,,2013-01-03 22:22:00,
2013-01-03 14:32:00,58.0,27.0,29.72,North,349,2.0,-999.0,30,-99.99,,,-99.99,,2013-01-03 22:32:00,
2013-01-03 14:42:00,58.0,27.0,29.72,North,349,2.0,-999.0,30,-99.99,,,-99.99,,2013-01-03 22:42:00,
2013-01-03 14:52:00,58.0,27.0,29.72,North,349,2.0,-999.0,30,-99.99,,,-99.99,,2013-01-03 22:52:00,
2013-01-03 15:02:00,57.0,26.0,29.73,NE,40,1.0,-999.0,30,-99.99,,,-99.99,,2013-01-03 23:02:00,
2013-01-03 15:12:00,57.0,26.0,29.73,NE,40,1.0,-999.0,30,-99.99,,,-99.99,,2013-01-03 23:12:00,
2013-01-03 15:22:00,56.0,27.0,29.73,North,5,3.0,-999.0,33,-99.99,,,-99.99,,2013-01-03 23:22:00,
2013-01-03 15:32:00,55.0,27.0,29.74,North,360,2.0,-999.0,34,-99.99,,,-99.99,,2013-01-03 23:32:00,
2013-01-03 15:42:00,55.0,27.0,29.74,North,360,2.0,-999.0,34,-99.99,,,-99.99,,2013-01-03 23:42:00,
2013-01-03 15:52:00,55.0,26.0,29.74,North,5,1.0,-999.0,32,-99.99,,,-99.99,,2013-01-03 23:52:00,
2013-01-03 16:02:00,55.0,26.0,29.74,NNE,29,0.0,-999.0,33,-99.99,,,-99.99,,2013-01-04 00:02:00,
2013-01-03 16:12:00,55.0,26.0,29.74,NNE,29,0.0,-999.0,33,-99.99,,,-99.99,,2013-01-04 00:12:00,
2013-01-03 16:22:00,55.0,26.0,29.74,NE,37,0.0,-999.0,32,-99.99,,,-99.99,,2013-01-04 00:22:00,
2013-01-03 16:32:00,54.0,25.0,29.74,NE,39,0.0,-999.0,32,-99.99,,,-99.99,,2013-01-04 00:32:00,
2013-01-03 16:42:00,54.0,25.0,29.74,NE,39,0.0,-999.0,32,-99.99,,,-99.99,,2013-01-04 00:42:00,
2013-01-03 16:52:00,54.0,24.0,29.74,NE,39,0.0,-999.0,31,-99.99,,,-99.99,,2013-01-04 00:52:00,
2013-01-03 17:02:00,53.0,29.0,29.73,NE,39,1.0,-999.0,39,-99.99,,,-99.99,,2013-01-04 01:02:00,
2013-01-03 17:12:00,53.0,29.0,29.73,NE,39,1.0,-999.0,39,-99.99,,,-99.99,,2013-01-04 01:12:00,
2013-01-03 17:22:00,51.0,29.0,29.73,SSW,202,0.0,-999.0,43,-99.99,,,-99.99,,2013-01-04 01:22:00,
2013-01-03 17:32:00,51.0,28.0,29.74,SSW,202,0.0,-999.0,40,-99.99,,,-99.99,,2013-01-04 01:32:00,
2013-01-03 17:42:00,51.0,28.0,29.74,SSW,202,0.0,-999.0,40,-99.99,,,-99.99,,2013-01-04 01:42:00,
2013-01-03 17:52:00,51.0,24.0,29.74,SSW,202,0.0,-999.0,34,-99.99,,,-99.99,,2013-01-04 01:52:00,
2013-01-03 18:02:00,50.0,24.0,29.74,SSW,202,0.0,-999.0,36,-99.99,,,-99.99,,2013-01-04 02:02:00,
2013-01-03 18:12:00,50.0,24.0,29.74,SSW,202,0.0,-999.0,36,-99.99,,,-99.99,,2013-01-04 02:12:00,
2013-01-03 18:22:00,48.0,26.0,29.75,SSW,210,0.0,-999.0,42,-99.99,,,-99.99,,2013-01-04 02:22:00,
2013-01-03 18:32:00,48.0,25.0,29.75,SSW,210,0.0,-999.0,41,-99.99,,,-99.99,,2013-01-04 02:32:00,
2013-01-03 18:42:00,48.0,25.0,29.75,SSW,210,0.0,-999.0,41,-99.99,,,-99.99,,2013-01-04 02:42:00,
2013-01-03 18:52:00,48.0,28.0,29.75,ESE,107,0.0,-999.0,45,-99.99,,,-99.99,,2013-01-04 02:52:00,
2013-01-03 19:02:00,48.0,30.0,29.75,East,80,0.0,-999.0,49,-99.99,,,-99.99,,2013-01-04 03:02:00,
2013-01-03 19:12:00,48.0,30.0,29.75,East,80,0.0,-999.0,49,-99.99,,,-99.99,,2013-01-04 03:12:00,
2013-01-03 19:22:00,48.0,31.0,29.75,ENE,78,0.0,-999.0,52,-99.99,,,-99.99,,2013-01-04 03:22:00,
2013-01-03 19:32:00,47.0,31.0,29.77,NE,48,0.0,-999.0,54,-99.99,,,-99.99,,2013-01-04 03:32:00,
2013-01-03 19:42:00,47.0,31.0,29.77,NE,48,0.0,-999.0,54,-99.99,,,-99.99,,2013-01-04 03:42:00,
2013-01-03 19:52:00,47.0,33.0,29.77,NE,49,0.0,-999.0,57,-99.99,,,-99.99,,2013-01-04 03:52:00,
2013-01-03 20:02:00,47.0,33.0,29.77,NE,52,0.0,-999.0,58,-99.99,,,-99.99,,2013-01-04 04:02:00,
2013-01-03 20:12:00,47.0,33.0,29.77,NE,52,0.0,-999.0,58,-99.99,,,-99.99,,2013-01-04 04:12:00,
2013-01-03 20:22:00,47.0,33.0,29.77,NE,55,0.0,-999.0,59,-99.99,,,-99.99,,2013-01-04 04:22:00,
2013-01-03 20:32:00,47.0,33.0,29.78,ENE,57,0.0,-999.0,59,-99.99,,,-99.99,,2013-01-04 04:32:00,
2013-01-03 20:42:00,47.0,33.0,29.78,ENE,57,0.0,-999.0,59,-99.99,,,-99.99,,2013-01-04 04:42:00,
2013-01-03 20:52:00,46.0,33.0,29.77,ENE,57,0.0,-999.0,60,-99.99,,,-99.99,,2013-01-04 04:52:00,
2013-01-03 21:03:00,46.0,32.0,29.78,ENE,57,0.0,-999.0,58,-99.99,,,-99.99,,2013-01-04 05:03:00,
2013-01-03 21:12:00,46.0,32.0,29.78,ENE,57,0.0,-999.0,58,-99.99,,,-99.99,,2013-01-04 05:12:00,
2013-01-03 21:22:00,46.0,30.0,29.77,ENE,57,0.0,-999.0,54,-99.99,,,-99.99,,2013-01-04 05:22:00,
2013-01-03 21:33:00,46.0,31.0,29.77,ENE,57,0.0,-999.0,56,-99.99,,,-99.99,,2013-01-04 05:33:00,
2013-01-03 21:42:00,46.0,31.0,29.77,ENE,57,0.0,-999.0,56,-99.99,,,-99.99,,2013-01-04 05:42:00,
2013-01-03 21:52:00,45.0,29.0,29.78,ENE,74,0.0,-999.0,54,-99.99,,,-99.99,,2013-01-04 05:52:00,
2013-01-03 22:02:00,46.0,29.0,29.78,ENE,75,0.0,-999.0,52,-99.99,,,-99.99,,2013-01-04 06:02:00,
2013-01-03 22:12:00,46.0,29.0,29.78,ENE,75,0.0,-999.0,52,-99.99,,,-99.99,,2013-01-04 06:12:00,
2013-01-03 22:22:00,46.0,29.0,29.78,ENE,76,0.0,-999.0,52,-99.99,,,-99.99,,2013-01-04 06:22:00,
2013-01-03 22:32:00,46.0,30.0,29.78,ENE,76,0.0,-999.0,53,-99.99,,,-99.99,,2013-01-04 06:32:00,
2013-01-03 22:42:00,46.0,30.0,29.78,ENE,76,0.0,-999.0,53,-99.99,,,-99.99,,2013-01-04 06:42:00,
2013-01-03 22:52:00,45.0,29.0,29.78,ENE,76,0.0,-999.0,54,-99.99,,,-99.99,,2013-01-04 06:52:00,
2013-01-03 23:02:00,46.0,29.0,29.78,ENE,75,0.0,-999.0,52,-99.99,,,-99.99,,2013-01-04 07:02:00,
2013-01-03 23:12:00,46.0,29.0,29.78,ENE,75,0.0,-999.0,52,-99.99,,,-99.99,,2013-01-04 07:12:00,
2013-01-03 23:22:00,47.0,28.0,29.78,ENE,75,0.0,-999.0,48,-99.99,,,-99.99,,2013-01-04 07:22:00,
2013-01-03 23:32:00,47.0,28.0,29.78,ENE,76,0.0,-999.0,47,-99.99,,,-99.99,,2013-01-04 07:32:00,
2013-01-03 23:42:00,47.0,28.0,29.78,ENE,76,0.0,-999.0,47,-99.99,,,-99.99,,2013-01-04 07:42:00,
2013-01-03 23:52:00,49.0,27.0,29.78,ENE,76,0.0,-999.0,42,-99.99,,,-99.99,,2013-01-04 07:52:00,